• In Uzbekistan
  • List of Countries
  • For 7 days
  • Water Temperature
  • Satellite Maps
  • Weather Map
  • Weather Widgets
  • user-avatar
    Login

    Hourly Weather Santa Fe

    Today, 27 April, Thursday

    Time Temperature Precipitation Wind Pressure Humidity
    00:00 +10°C° 0 mm 3 mps 762 mmHg 54%
    01:00 +10°C° 0 mm 3 mps 762 mmHg 55%
    02:00 +9°C° 0 mm 3 mps 762 mmHg 57%
    03:00 +9°C° 0 mm 3 mps 762 mmHg 58%
    04:00 +9°C° 0 mm 3 mps 762 mmHg 58%
    05:00 +9°C° 0 mm 3 mps 762 mmHg 59%
    06:00 +10°C° 0 mm 3 mps 763 mmHg 57%
    07:00 +11°C° 0 mm 3 mps 763 mmHg 54%
    08:00 +12°C° 0 mm 2 mps 764 mmHg 52%
    09:00 +14°C° 0 mm 3 mps 764 mmHg 46%
    10:00 +18°C° 0 mm 3 mps 764 mmHg 39%
    11:00 +20°C° 0 mm 3 mps 764 mmHg 33%
    12:00 +21°C° 0 mm 3 mps 764 mmHg 30%
    13:00 +22°C° 0 mm 3 mps 763 mmHg 28%
    14:00 +24°C° 0 mm 3 mps 762 mmHg 26%
    15:00 +22°C° 0 mm 3 mps 762 mmHg 31%
    16:00 +20°C° 0 mm 2 mps 762 mmHg 36%
    17:00 +19°C° 0 mm 2 mps 761 mmHg 41%
    18:00 +17°C° 0 mm 2 mps 761 mmHg 41%
    19:00 +16°C° 0 mm 3 mps 762 mmHg 41%
    20:00 +14°C° 0 mm 3 mps 762 mmHg 42%
    21:00 +14°C° 0 mm 3 mps 762 mmHg 43%
    22:00 +13°C° 0 mm 3 mps 762 mmHg 45%
    23:00 +13°C° 0 mm 3 mps 763 mmHg 46%

    Tomorrow, 28 April, Friday

    Time Temperature Precipitation Wind Pressure Humidity
    00:00 +12°C° 0 mm 3 mps 763 mmHg 48%
    01:00 +12°C° 0 mm 3 mps 763 mmHg 49%
    02:00 +12°C° 0 mm 3 mps 763 mmHg 51%
    03:00 +11°C° 0 mm 3 mps 763 mmHg 52%
    04:00 +11°C° 0 mm 3 mps 763 mmHg 54%
    05:00 +11°C° 0 mm 3 mps 763 mmHg 56%
    06:00 +11°C° 0 mm 3 mps 764 mmHg 55%
    07:00 +12°C° 0 mm 3 mps 764 mmHg 54%
    08:00 +13°C° 0 mm 4 mps 765 mmHg 53%
    09:00 +17°C° 0 mm 4 mps 765 mmHg 48%
    10:00 +19°C° 0 mm 4 mps 765 mmHg 42%
    11:00 +22°C° 0 mm 4 mps 766 mmHg 37%
    12:00 +23°C° 0 mm 4 mps 765 mmHg 34%
    13:00 +25°C° 0 mm 4 mps 764 mmHg 32%
    14:00 +27°C° 0 mm 4 mps 764 mmHg 30%
    15:00 +25°C° 0 mm 3 mps 763 mmHg 35%
    16:00 +22°C° 0 mm 3 mps 763 mmHg 39%
    17:00 +21°C° 0 mm 2 mps 763 mmHg 44%
    18:00 +19°C° 0 mm 2 mps 763 mmHg 45%
    19:00 +18°C° 0 mm 3 mps 764 mmHg 46%
    20:00 +17°C° 0 mm 3 mps 764 mmHg 47%
    21:00 +16°C° 0 mm 3 mps 764 mmHg 48%
    22:00 +16°C° 0 mm 3 mps 765 mmHg 49%
    23:00 +14°C° 0 mm 3 mps 765 mmHg 51%

    Day after tomorrow, 29 April, Saturday

    Time Temperature Precipitation Wind Pressure Humidity
    00:00 +13°C° 0 mm 3 mps 765 mmHg 52%
    01:00 +13°C° 0 mm 3 mps 765 mmHg 53%
    02:00 +13°C° 0 mm 3 mps 765 mmHg 54%
    03:00 +12°C° 0 mm 3 mps 765 mmHg 56%
    04:00 +12°C° 0 mm 3 mps 765 mmHg 58%
    05:00 +11°C° 0 mm 3 mps 764 mmHg 60%
    06:00 +12°C° 0 mm 3 mps 765 mmHg 59%
    07:00 +13°C° 0 mm 3 mps 765 mmHg 58%
    08:00 +14°C° 0 mm 3 mps 766 mmHg 57%
    09:00 +17°C° 0 mm 3 mps 766 mmHg 50%
    10:00 +20°C° 0 mm 3 mps 766 mmHg 44%
    11:00 +23°C° 0 mm 4 mps 766 mmHg 37%
    12:00 +25°C° 0 mm 4 mps 765 mmHg 35%
    13:00 +26°C° 0 mm 4 mps 764 mmHg 32%
    14:00 +27°C° 0 mm 4 mps 764 mmHg 29%
    15:00 +25°C° 0 mm 4 mps 764 mmHg 34%
    16:00 +24°C° 0 mm 3 mps 763 mmHg 39%
    17:00 +21°C° 0 mm 3 mps 763 mmHg 44%
    18:00 +20°C° 0 mm 3 mps 764 mmHg 46%
    19:00 +18°C° 0 mm 3 mps 764 mmHg 48%
    20:00 +17°C° 0 mm 3 mps 764 mmHg 50%
    21:00 +16°C° 0 mm 3 mps 764 mmHg 52%
    22:00 +16°C° 0 mm 3 mps 764 mmHg 54%
    23:00 +14°C° 0 mm 3 mps 765 mmHg 56%

    30 April, Sunday

    Time Temperature Precipitation Wind Pressure Humidity
    00:00 +14°C° 0 mm 3 mps 765 mmHg 58%
    01:00 +13°C° 0 mm 3 mps 764 mmHg 61%
    02:00 +14°C° 0 mm 2 mps 764 mmHg 63%
    03:00 +12°C° 0 mm 3 mps 764 mmHg 66%
    04:00 +12°C° 0 mm 3 mps 764 mmHg 68%
    05:00 +12°C° 0 mm 3 mps 764 mmHg 71%
    06:00 +13°C° 0 mm 3 mps 765 mmHg 70%
    07:00 +13°C° 0 mm 3 mps 765 mmHg 69%
    08:00 +14°C° 0 mm 3 mps 765 mmHg 68%
    09:00 +18°C° 0 mm 4 mps 765 mmHg 60%
    10:00 +21°C° 0 mm 4 mps 765 mmHg 51%
    11:00 +23°C° 0 mm 4 mps 765 mmHg 43%
    12:00 +25°C° 0 mm 4 mps 764 mmHg 39%
    13:00 +26°C° 0 mm 4 mps 764 mmHg 35%
    14:00 +28°C° 0 mm 4 mps 763 mmHg 31%
    15:00 +26°C° 0 mm 4 mps 763 mmHg 36%
    16:00 +25°C° 0 mm 3 mps 762 mmHg 41%
    17:00 +22°C° 0 mm 3 mps 762 mmHg 46%
    18:00 +21°C° 0 mm 3 mps 763 mmHg 50%
    19:00 +19°C° 0 mm 3 mps 763 mmHg 53%
    20:00 +18°C° 0 mm 3 mps 763 mmHg 57%
    21:00 +17°C° 0 mm 3 mps 763 mmHg 60%
    22:00 +17°C° 0 mm 3 mps 763 mmHg 62%
    23:00 +16°C° 0 mm 3 mps 763 mmHg 65%

    1 May, Monday

    Time Temperature Precipitation Wind Pressure Humidity
    00:00 +16°C° 0 mm 3 mps 763 mmHg 67%
    01:00 +14°C° 0 mm 3 mps 763 mmHg 69%
    02:00 +14°C° 0 mm 3 mps 763 mmHg 71%
    03:00 +13°C° 0 mm 3 mps 763 mmHg 73%
    04:00 +13°C° 0 mm 3 mps 763 mmHg 75%
    05:00 +12°C° 0 mm 3 mps 763 mmHg 78%
    06:00 +13°C° 0 mm 3 mps 764 mmHg 75%
    07:00 +14°C° 0 mm 3 mps 764 mmHg 73%
    08:00 +16°C° 0 mm 3 mps 764 mmHg 70%
    09:00 +18°C° 0 mm 4 mps 764 mmHg 61%
    10:00 +21°C° 0 mm 4 mps 764 mmHg 53%
    11:00 +25°C° 0 mm 4 mps 764 mmHg 44%
    12:00 +26°C° 0 mm 4 mps 763 mmHg 40%
    13:00 +27°C° 0 mm 4 mps 762 mmHg 36%
    14:00 +28°C° 0 mm 4 mps 762 mmHg 33%
    15:00 +26°C° 0 mm 4 mps 762 mmHg 38%
    16:00 +25°C° 0 mm 3 mps 761 mmHg 43%
    17:00 +22°C° 0 mm 3 mps 761 mmHg 48%
    18:00 +21°C° 0 mm 3 mps 762 mmHg 53%
    19:00 +19°C° 0 mm 3 mps 762 mmHg 57%
    20:00 +18°C° 0 mm 4 mps 762 mmHg 62%
    21:00 +18°C° 0 mm 4 mps 762 mmHg 64%
    22:00 +17°C° 0 mm 4 mps 762 mmHg 66%
    23:00 +15°C° 0 mm 4 mps 762 mmHg 68%

    2 May, Tuesday

    Time Temperature Precipitation Wind Pressure Humidity
    00:00 +15°C° 0 mm 4 mps 762 mmHg 71%
    01:00 +16°C° 0 mm 3 mps 762 mmHg 74%
    02:00 +14°C° 0 mm 3 mps 762 mmHg 77%
    03:00 +14°C° 0 mm 3 mps 762 mmHg 80%
    04:00 +13°C° 0 mm 3 mps 762 mmHg 83%
    05:00 +13°C° 0 mm 3 mps 762 mmHg 85%
    06:00 +14°C° 0 mm 3 mps 763 mmHg 82%
    07:00 +15°C° 0 mm 4 mps 763 mmHg 78%
    08:00 +15°C° 0 mm 4 mps 763 mmHg 75%
    09:00 +19°C° 0 mm 4 mps 763 mmHg 68%
    10:00 +21°C° 0 mm 4 mps 763 mmHg 60%
    11:00 +25°C° 0 mm 4 mps 763 mmHg 53%
    12:00 +26°C° 0 mm 4 mps 762 mmHg 51%
    13:00 +27°C° 0 mm 4 mps 761 mmHg 48%
    14:00 +28°C° 0 mm 4 mps 761 mmHg 46%
    15:00 +27°C° 0 mm 4 mps 761 mmHg 51%
    16:00 +26°C° 0 mm 3 mps 761 mmHg 56%
    17:00 +25°C° 0 mm 3 mps 761 mmHg 61%
    18:00 +22°C° 0 mm 3 mps 761 mmHg 65%
    19:00 +21°C° 0 mm 4 mps 761 mmHg 69%
    20:00 +19°C° 0 mm 4 mps 762 mmHg 73%
    21:00 +19°C° 0 mm 4 mps 762 mmHg 73%
    22:00 +18°C° 0 mm 4 mps 762 mmHg 73%
    23:00 +18°C° 0 mm 3 mps 763 mmHg 73%
    Show more